Regional Weather Roundup
Issued by NWS

Home | Current Version | Previous Version | Text Only | Print | Product List | Glossary Off
Versions: 1 2 3 4 5 6 7 8 9 10 11 12 13 14 15 16 17 18 19 20 21 22 23 24 25 26 27 28 29 30 31 32 33 34 35 36 37 38 39 40 41 42 43 44 45 46 47 48 49 50

000
ASUS45 KTFX 110304
RWRMT
MONTANA HOURLY WEATHER ROUNDUP
NATIONAL WEATHER SERVICE GREAT FALLS MT
904 PM MDT THU JUL 10 2014

NOTE: "FAIR" INDICATES FEW OR NO CLOUDS BELOW 12000 FEET WITH NO
SIGNIFICANT WEATHER AND/OR OBSTRUCTIONS TO VISIBILITY.

* THESE STATIONS ARE NOT UNDER NWS QUALITY CONTROL. THEY DO NOT
   REPORT WEATHER SUCH AS PRECIPITATION OR FOG.

MTZ001>007-043-110400-
WEST OF THE DIVIDE
CITY           SKY/WX    TMP DP  RH WIND       PRES   REMARKS
KALISPELL      CLEAR     79  43  28 W3        29.85R
MISSOULA       CLEAR     82  37  20 NW7       29.87R
BUTTE          CLEAR     81  30  16 NW12      30.00R
MULLAN PASS    CLEAR     64  43  47 VRB3      30.09R
* ESSEX        N/A      N/A N/A N/A N/A        N/A
* LINCOLN      N/A       84  34  17 W4G12      N/A
* LOOKOUT PASS N/A       69  45  42 N/A        N/A
* POLSON       N/A       74  45  36 NW2        N/A
* RONAN APT    CLEAR     82  52  35 N/A        N/A
* SEELEY LAKE  N/A       85  35  17 NW4G13     N/A
* THOMP F APT  CLEAR     74  48  40 SE6G12     N/A
* YAAK HILL    N/A       83  45  26 S2         N/A
$$

MTZ008-052>055-110400-
SOUTHWEST MONTANA
CITY           SKY/WX    TMP DP  RH WIND       PRES   REMARKS
BOZEMAN        PTCLDY    75  52  45 SE7       29.90R
DILLON         CLEAR     81  43  26 CALM      29.95R
W YELLOWSTONE  CLEAR     68  48  49 SE3       30.10S
* THREE FORKS  PTCLDY    88  52  29 N/A        N/A
* BOULDER HILL N/A       74  35  24 N/A        N/A
* MONIDA PASS  N/A       74  46  37 S8         N/A
* RAYNOLDS PAS N/A       69  48  47 SE9        N/A
* WHITEHALL    N/A       89  37  16 NW6G11     N/A
* WISE RIVER   N/A       82  38  21 NW6        N/A
$$

MTZ009>010-012-014-046-048-049-054-110400-
EAST SLOPES AND CENTRAL MONTANA
CITY           SKY/WX    TMP DP  RH WIND       PRES   REMARKS
CUT BANK       CLEAR     73  55  53 NE14      29.89R
GREAT FALLS    PTCLDY    79  45  30 N13       29.84R
HELENA         CLEAR     84  36  18 NW5       29.86R
* CONRAD       CLEAR     79  59  50 N/A        N/A
* DEARBORN     N/A       85  36  17 S5         N/A
* EAST GLACIER N/A       71  34  26 NW5        N/A
* MONARCH      N/A       75  32  21 NW4        N/A
* PENDROY      N/A       76  54  47 NE2        N/A
* SAINT MARY   N/A       78  36  22 SW4G12     N/A
* SWEET GRASS  N/A       70  59  68 NE14       N/A
$$

MTZ011-013-016-021-035-040-045-047-050-051-110400-
NORTH CENTRAL MONTANA
CITY           SKY/WX    TMP DP  RH WIND       PRES   REMARKS
HAVRE          PTCLDY    81  50  34 NE7       29.82R
LEWISTOWN      CLEAR     79  48  34 SE5       29.90R
* CHESTER      N/A       80  48  33 NE12G18    N/A
* DENTON       N/A       79  48  34 E4         N/A
* JUDITH GAP   N/A       76  48  37 N/A        N/A
* LOMA         N/A       77  53  43 NE10       N/A
$$

MTZ017>020-022>027-061-062-110400-
NORTHEAST MONTANA
CITY           SKY/WX    TMP DP  RH WIND       PRES   REMARKS
GLASGOW        CLEAR     75  59  58 NE9       29.83R
GLENDIVE       CLEAR     79  63  58 N12       29.85R
JORDAN         CLEAR     81  48  32 NE9       29.83R
SIDNEY         CLEAR     77  61  58 N13G21    29.83R
WOLF POINT     CLEAR     75  57  54 E6        29.83R
* BEAVER HILL  N/A       78  60  54 NW13G20    N/A
* CIRCLE       N/A       78  62  58 NE5        N/A
* LINDSAY DVD  N/A       72  61  68 N10        N/A
* NAVAJO       N/A       66  58  76 N7         N/A
$$

MTZ028>042-056>058-110400-
SOUTHCENTRAL AND SOUTHEAST MONTANA
CITY           SKY/WX    TMP DP  RH WIND       PRES   REMARKS
BAKER          CLEAR     79  55  44 N9        29.85R
BILLINGS       PTCLDY    88  41  19 SE7       29.86R
LIVINGSTON     CLEAR     75  46  36 S6        29.91R
MILES CITY     CLEAR     81  52  37 NE13      29.82R
* LAUREL APT   PTCLDY    81  45  28 N/A        N/A
* ROUNDUP APT  CLEAR     84  41  22 N/A        N/A
* ALZADA       N/A       78  58  50 N/A        N/A
* HYSHAM       N/A       81  45  28 N/A        N/A
* LAME DEER    N/A       80  46  30 N/A        N/A
* REED POINT   N/A       88  45  22 NW2        N/A
* ROSCOE HILL  N/A       76  43  31 S12G17     N/A
$$

REGIONAL REPORTS...DAKOTAS
CITY           SKY/WX    TMP DP  RH WIND       PRES   REMARKS
WILLISTON      CLEAR     75  64  69 N15       29.81R
DICKINSON      CLEAR     72  66  81 S8        29.80R
CROSBY         N/A       68  66  93 N8        29.83R
WATFORD CITY   CLEAR     75  66  74 NW14G24   29.77R
BISMARCK       CLEAR     70  66  87 S3        29.81R
GRAND FORKS    PTCLDY    72  64  76 S7        29.82R
FARGO          CLOUDY    72  70  93 E7        29.83S
BUFFALO SD     CLEAR     75  66  74 S10       29.79R
RAPID CITY     MOCLDY    73  63  71 S9        29.92R
$$

REGIONAL REPORTS...WYOMING/IDAHO/WASHINGTON
CITY           SKY/WX    TMP DP  RH WIND       PRES   REMARKS
GILLETTE       PTCLDY    72  59  64 SW3       29.96R
SHERIDAN       MOCLDY    70  59  68 SW6       29.92R
CODY           PTCLDY   N/A N/A N/A CALM      30.00S
YELLOWSTONE LA PTCLDY    57  50  78 CALM      30.22R
SALMON         CLEAR     81  48  32 CALM      29.84R
MULLAN PASS    CLEAR     64  43  47 VRB3      30.09S
SAND POINT     CLEAR     72  55  55 W3        29.83R
SPOKANE        FAIR      88  30  12 CALM      29.83R

$$



USA.gov is the U.S. government's official web portal to all federal, state and local government web resources and services.